Location: *
(55.5817°S, 142.4781°W)
Time: 07:26:10
(UTC+00:00)

Cosmos 1697 Rocket - Pass Details

Date: 29 April 2025
Orbit: 831 x 843 km, 71.0° (Epoch: 23 May)

Event Time Altitude Azimuth Distance (km) Brightness Sun altitude
Exits shadow 15:29:41 11° 291° (WNW) 2,418 4.6 -11.7°
Maximum altitude 15:34:53 41° 222° (SW) 1,221 3.2 -11.0°
Drops below altitude 10° 15:40:17 10° 151° (SSE) 2,493 5.4 -10.3°
Sets 15:42:54 0° 144° (SE) 3,430 6.2 -9.9°
